| time (UTC) | temp F | wind direction | speed knots | gust knots | rain 1hr in | rain 24hr in | rain mn in | humidity % | barometer mb |
| 20260503050040 | 31 | 0 | 0.0 | 0.9 | 0.00 | 0.00 | 0.00 | 89 | 1012.7 |
| 20260503050009 | 31 | 58 | 0.0 | 0.9 | 0.00 | 0.00 | 0.00 | 89 | 1013.2 |
| 20260503044545 | 31 | 269 | 0.0 | 1.7 | 0.00 | 0.01 | 0.00 | 90 | 1012.8 |
| 20260503044514 | 31 | 269 | 0.0 | 0.9 | 0.00 | 0.00 | 0.00 | 90 | 1013.2 |
| 20260503043051 | 31 | 269 | 0.0 | 1.7 | 0.00 | 0.01 | 0.00 | 89 | 1012.8 |
| 20260503043012 | 31 | 269 | 0.0 | 1.7 | 0.00 | 0.00 | 0.00 | 89 | 1013.2 |
| 20260503041549 | 31 | 0 | 0.0 | 1.7 | 0.00 | 0.01 | 0.00 | 89 | 1012.9 |
| 20260503041528 | 31 | 269 | 0.0 | 1.7 | 0.00 | 0.01 | 0.00 | 89 | 1013.3 |
| 20260503040054 | 32 | 0 | 0.0 | 1.7 | 0.00 | 0.01 | 0.00 | 86 | 1012.9 |
| 20260503040026 | 32 | 269 | 0.0 | 1.7 | 0.00 | 0.01 | 0.00 | 86 | 1013.4 |
| 20260503034548 | 32 | 0 | 0.0 | 1.7 | 0.00 | 0.04 | 0.01 | 86 | 1013.0 |
| 20260503034528 | 32 | 269 | 0.0 | 1.7 | 0.00 | 0.02 | 0.01 | 86 | 1013.4 |
| 20260503033049 | 32 | 269 | 0.0 | 1.7 | 0.00 | 0.04 | 0.01 | 85 | 1013.0 |
| 20260503033025 | 32 | 269 | 0.0 | 1.7 | 0.00 | 0.02 | 0.01 | 85 | 1013.4 |
| 20260503031549 | 33 | 0 | 0.0 | 1.7 | 0.00 | 0.04 | 0.01 | 85 | 1013.0 |
| 20260503031526 | 33 | 269 | 0.0 | 0.9 | 0.00 | 0.02 | 0.01 | 85 | 1013.5 |
| 20260503030057 | 33 | 0 | 0.0 | 1.7 | 0.00 | 0.04 | 0.01 | 85 | 1013.0 |
| 20260503030029 | 33 | 269 | 0.0 | 1.7 | 0.00 | 0.04 | 0.01 | 85 | 1013.5 |
| 20260503024542 | 33 | 0 | 0.0 | 0.9 | 0.00 | 0.09 | 0.01 | 83 | 1013.0 |
| 20260503024526 | 33 | 268 | 0.0 | 0.9 | 0.00 | 0.07 | 0.01 | 83 | 1013.5 |
| 20260503023059 | 34 | 268 | 0.0 | 1.7 | 0.00 | 0.09 | 0.01 | 82 | 1013.0 |
| 20260503023027 | 34 | 268 | 0.0 | 1.7 | 0.00 | 0.07 | 0.01 | 82 | 1013.5 |
| 20260503021554 | 35 | 0 | 0.0 | 0.0 | 0.00 | 0.09 | 0.01 | 80 | 1013.0 |
| 20260503021526 | 35 | 267 | 0.0 | 0.0 | 0.00 | 0.08 | 0.01 | 80 | 1013.6 |
| 20260503020049 | 36 | 267 | 0.0 | 0.9 | 0.00 | 0.09 | 0.01 | 77 | 1013.0 |
| 20260503020027 | 36 | 267 | 0.0 | 0.9 | 0.00 | 0.09 | 0.01 | 77 | 1013.5 |
| 20260503014548 | 37 | 0 | 0.0 | 0.0 | 0.00 | 0.11 | 0.01 | 76 | 1013.0 |
| 20260503014528 | 37 | 267 | 0.0 | 0.0 | 0.00 | 0.11 | 0.01 | 76 | 1013.5 |
| 20260503013041 | 38 | 0 | 0.0 | 0.0 | 0.00 | 0.11 | 0.01 | 72 | 1013.0 |
| 20260503013035 | 38 | 267 | 0.0 | 0.0 | 0.00 | 0.11 | 0.01 | 72 | 1013.4 |
| 20260503011546 | 40 | 0 | 0.0 | 1.7 | 0.00 | 0.11 | 0.01 | 68 | 1013.0 |
| 20260503011530 | 40 | 267 | 0.0 | 1.7 | 0.00 | 0.11 | 0.01 | 68 | 1013.6 |
| 20260503010053 | 41 | 0 | 0.0 | 1.7 | 0.00 | 0.11 | 0.01 | 64 | 1012.8 |
| 20260503010008 | 41 | 267 | 0.0 | 1.7 | 0.00 | 0.11 | 0.01 | 64 | 1013.4 |
| 20260503004558 | 43 | 0 | 0.0 | 1.7 | 0.00 | 0.11 | 0.01 | 60 | 1012.7 |
| 20260503004509 | 43 | 267 | 0.0 | 1.7 | 0.00 | 0.11 | 0.01 | 60 | 1013.3 |
| 20260503003100 | 44 | 11 | 0.9 | 4.3 | 0.00 | 0.11 | 0.01 | 58 | 1012.6 |
| 20260503003006 | 44 | 13 | 0.9 | 4.3 | 0.00 | 0.11 | 0.01 | 58 | 1013.1 |
| 20260503001612 | 44 | 51 | 0.0 | 4.3 | 0.00 | 0.11 | 0.01 | 57 | 1012.3 |
| 20260503001507 | 44 | 360 | 0.0 | 4.3 | 0.00 | 0.11 | 0.01 | 57 | 1012.8 |
| 20260503000056 | 45 | 315 | 0.0 | 1.7 | 0.00 | 0.11 | 0.01 | 55 | 1012.3 |
| 20260503000006 | 45 | 315 | 0.0 | 1.7 | 0.00 | 0.11 | 0.01 | 55 | 1012.7 |
| 20260502234543 | 45 | 315 | 0.0 | 1.7 | 0.00 | 0.11 | 0.01 | 52 | 1012.1 |
| 20260502234508 | 45 | 314 | 0.0 | 1.7 | 0.00 | 0.11 | 0.01 | 52 | 1012.6 |
| 20260502233044 | 46 | 9 | 2.6 | 4.3 | 0.00 | 0.11 | 0.01 | 49 | 1012.2 |
| 20260502233007 | 46 | 39 | 2.6 | 4.3 | 0.00 | 0.11 | 0.01 | 49 | 1012.6 |
| 20260502231541 | 47 | 254 | 0.9 | 7.0 | 0.00 | 0.11 | 0.01 | 49 | 1012.0 |
| 20260502231516 | 47 | 277 | 0.9 | 7.0 | 0.00 | 0.11 | 0.01 | 49 | 1012.3 |
| 20260502230039 | 48 | 25 | 2.6 | 7.8 | 0.00 | 0.11 | 0.01 | 48 | 1012.0 |
| 20260502230008 | 48 | 315 | 2.6 | 7.0 | 0.00 | 0.11 | 0.01 | 48 | 1012.6 |
| 20260502224549 | 47 | 281 | 1.7 | 5.2 | 0.00 | 0.11 | 0.01 | 51 | 1011.9 |
| 20260502224506 | 47 | 30 | 2.6 | 5.2 | 0.00 | 0.11 | 0.01 | 51 | 1012.1 |
| 20260502223044 | 48 | 347 | 1.7 | 7.0 | 0.00 | 0.11 | 0.01 | 51 | 1011.7 |
| 20260502223008 | 48 | 5 | 1.7 | 7.0 | 0.00 | 0.11 | 0.01 | 51 | 1011.9 |
| 20260502221539 | 48 | 274 | 1.7 | 5.2 | 0.00 | 0.11 | 0.01 | 49 | 1011.6 |
| 20260502221507 | 48 | 350 | 1.7 | 5.2 | 0.00 | 0.11 | 0.01 | 49 | 1011.9 |
| 20260502220041 | 48 | 255 | 1.7 | 7.0 | 0.00 | 0.11 | 0.01 | 47 | 1011.4 |
| 20260502220009 | 48 | 255 | 1.7 | 7.0 | 0.00 | 0.11 | 0.01 | 47 | 1011.9 |
| 20260502214540 | 49 | 34 | 4.3 | 8.7 | 0.00 | 0.11 | 0.01 | 47 | 1011.4 |
| 20260502214507 | 49 | 18 | 4.3 | 8.7 | 0.00 | 0.11 | 0.01 | 47 | 1011.9 |
| 20260502213055 | 49 | 24 | 3.5 | 8.7 | 0.00 | 0.11 | 0.01 | 47 | 1011.4 |
| 20260502213009 | 49 | 5 | 3.5 | 8.7 | 0.00 | 0.11 | 0.01 | 47 | 1011.8 |
| 20260502211544 | 50 | 360 | 1.7 | 5.2 | 0.00 | 0.11 | 0.01 | 46 | 1011.2 |
| 20260502211509 | 50 | 46 | 1.7 | 5.2 | 0.00 | 0.11 | 0.01 | 46 | 1011.7 |
| 20260502210043 | 50 | 286 | 2.6 | 7.8 | 0.00 | 0.11 | 0.01 | 46 | 1011.2 |
| 20260502210010 | 50 | 9 | 2.6 | 7.8 | 0.00 | 0.11 | 0.01 | 46 | 1011.7 |
| 20260502204545 | 51 | 232 | 2.6 | 7.8 | 0.00 | 0.11 | 0.01 | 46 | 1011.2 |
| 20260502204527 | 51 | 229 | 3.5 | 7.8 | 0.00 | 0.11 | 0.01 | 46 | 1011.7 |
| 20260502203042 | 51 | 347 | 1.7 | 9.6 | 0.00 | 0.11 | 0.01 | 45 | 1011.2 |
| 20260502203027 | 51 | 248 | 2.6 | 9.6 | 0.00 | 0.11 | 0.01 | 45 | 1011.8 |
| 20260502201547 | 51 | 29 | 3.5 | 8.7 | 0.00 | 0.11 | 0.01 | 45 | 1011.3 |
| 20260502201531 | 51 | 343 | 3.5 | 8.7 | 0.00 | 0.11 | 0.01 | 45 | 1011.8 |
| 20260502200107 | 50 | 338 | 1.7 | 9.6 | 0.00 | 0.11 | 0.01 | 47 | 1011.4 |
| 20260502200026 | 50 | 348 | 0.9 | 9.6 | 0.00 | 0.11 | 0.01 | 47 | 1011.9 |
| 20260502194602 | 50 | 284 | 3.5 | 9.6 | 0.00 | 0.11 | 0.01 | 44 | 1011.6 |
| 20260502194528 | 50 | 307 | 3.5 | 9.6 | 0.00 | 0.11 | 0.01 | 44 | 1012.2 |
| 20260502193043 | 52 | 204 | 2.6 | 8.7 | 0.00 | 0.11 | 0.01 | 43 | 1011.8 |
| 20260502193027 | 52 | 158 | 2.6 | 8.7 | 0.00 | 0.11 | 0.01 | 43 | 1012.3 |
| 20260502191541 | 52 | 46 | 2.6 | 7.8 | 0.00 | 0.11 | 0.01 | 42 | 1011.8 |
| 20260502191528 | 52 | 300 | 1.7 | 7.8 | 0.00 | 0.11 | 0.01 | 42 | 1012.4 |
| 20260502190040 | 52 | 218 | 3.5 | 8.7 | 0.00 | 0.11 | 0.01 | 44 | 1012.0 |
| 20260502190012 | 52 | 270 | 3.5 | 8.7 | 0.00 | 0.11 | 0.01 | 44 | 1012.6 |
| 20260502184538 | 50 | 320 | 1.7 | 7.8 | 0.00 | 0.11 | 0.01 | 45 | 1012.1 |
| 20260502184509 | 50 | 336 | 0.9 | 7.8 | 0.00 | 0.11 | 0.01 | 45 | 1012.7 |
| 20260502183048 | 51 | 36 | 1.7 | 7.8 | 0.00 | 0.11 | 0.01 | 44 | 1012.1 |
| 20260502183008 | 51 | 36 | 2.6 | 7.8 | 0.00 | 0.11 | 0.01 | 44 | 1012.7 |
| 20260502181542 | 52 | 257 | 3.5 | 8.7 | 0.00 | 0.11 | 0.01 | 43 | 1012.0 |
| 20260502181511 | 51 | 255 | 3.5 | 8.7 | 0.00 | 0.11 | 0.01 | 48 | 1012.5 |
| 20260502163051 | 52 | 18 | 1.7 | 3.5 | 0.00 | 0.11 | 0.01 | 59 | 1012.1 |
| 20260502163013 | 51 | 288 | 1.7 | 3.5 | 0.00 | 0.11 | 0.01 | 59 | 1012.5 |
| 20260502161545 | 51 | 30 | 1.7 | 4.3 | 0.00 | 0.11 | 0.01 | 57 | 1012.2 |
| 20260502161510 | 51 | 31 | 1.7 | 4.3 | 0.00 | 0.11 | 0.01 | 57 | 1012.7 |
| 20260502151539 | 50 | 214 | 3.5 | 7.8 | 0.00 | 0.11 | 0.01 | 55 | 1012.3 |
| 20260502151511 | 50 | 273 | 3.5 | 7.8 | 0.00 | 0.11 | 0.01 | 55 | 1012.8 |
| 20260502150123 | 48 | 238 | 1.7 | 8.7 | 0.00 | 0.11 | 0.01 | 63 | 1012.5 |
| 20260502123049 | 43 | 9 | 1.7 | 7.8 | 0.00 | 0.11 | 0.01 | 77 | 1012.9 |
| 20260502123012 | 43 | 259 | 1.7 | 7.8 | 0.00 | 0.11 | 0.01 | 77 | 1013.3 |
| 20260502121559 | 43 | 286 | 0.9 | 2.6 | 0.00 | 0.11 | 0.01 | 80 | 1012.8 |
| 20260502121528 | 43 | 244 | 0.9 | 2.6 | 0.00 | 0.11 | 0.01 | 80 | 1013.2 |
| 20260502120110 | 42 | 225 | 0.0 | 2.6 | 0.00 | 0.11 | 0.01 | 80 | 1012.9 |
| 20260502114556 | 42 | 230 | 0.9 | 2.6 | 0.00 | 0.11 | 0.01 | 81 | 1012.8 |
| 20260502114527 | 42 | 229 | 0.9 | 2.6 | 0.00 | 0.11 | 0.01 | 81 | 1013.3 |
| 20260502113109 | 42 | 23 | 0.0 | 2.6 | 0.00 | 0.11 | 0.01 | 82 | 1012.9 |
| 20260502113026 | 42 | 22 | 0.0 | 2.6 | 0.00 | 0.11 | 0.01 | 82 | 1013.4 |
| 20260502111552 | 42 | 9 | 0.9 | 3.5 | 0.00 | 0.11 | 0.01 | 83 | 1012.7 |
| 20260502111532 | 42 | 335 | 0.9 | 3.5 | 0.00 | 0.11 | 0.01 | 83 | 1013.3 |
| 20260502110050 | 42 | 32 | 0.9 | 3.5 | 0.00 | 0.11 | 0.01 | 84 | 1012.5 |
| 20260502110037 | 42 | 37 | 0.9 | 3.5 | 0.00 | 0.11 | 0.01 | 84 | 1012.9 |
| 20260502104545 | 42 | 21 | 0.0 | 1.7 | 0.00 | 0.11 | 0.01 | 86 | 1012.4 |
| 20260502104525 | 42 | 19 | 0.0 | 1.7 | 0.00 | 0.11 | 0.01 | 86 | 1012.9 |
| 20260502103106 | 41 | 360 | 0.9 | 4.3 | 0.00 | 0.11 | 0.01 | 87 | 1012.2 |
| 20260502103028 | 41 | 42 | 0.9 | 4.3 | 0.00 | 0.11 | 0.01 | 87 | 1012.7 |
| 20260502101553 | 41 | 296 | 0.0 | 1.7 | 0.00 | 0.11 | 0.01 | 89 | 1012.1 |
| 20260502101527 | 41 | 231 | 0.0 | 1.7 | 0.00 | 0.11 | 0.01 | 89 | 1012.6 |
| 20260502091508 | 42 | 52 | 0.0 | 2.6 | 0.00 | 0.11 | 0.01 | 89 | 1011.8 |
| 20260502071511 | 44 | 265 | 0.0 | 1.7 | 0.00 | 0.11 | 0.01 | 94 | 1011.4 |
| 20260502070042 | 44 | 265 | 0.0 | 1.7 | 0.00 | 0.11 | 0.01 | 93 | 1011.1 |
| 20260502070012 | 44 | 265 | 0.0 | 1.7 | 0.00 | 0.11 | 0.01 | 93 | 1011.5 |
| 20260502064539 | 44 | 0 | 0.0 | 1.7 | 0.00 | 0.11 | 0.01 | 93 | 1011.1 |
| 20260502064511 | 44 | 265 | 0.0 | 1.7 | 0.00 | 0.11 | 0.01 | 93 | 1011.5 |
| 20260502063048 | 44 | 265 | 0.0 | 1.7 | 0.00 | 0.11 | 0.01 | 93 | 1011.3 |
| 20260502063011 | 44 | 265 | 0.0 | 1.7 | 0.00 | 0.11 | 0.01 | 93 | 1011.6 |
| 20260502061546 | 44 | 0 | 0.0 | 2.6 | 0.00 | 0.11 | 0.01 | 94 | 1011.3 |
| 20260502061511 | 44 | 265 | 0.0 | 2.6 | 0.00 | 0.11 | 0.01 | 94 | 1011.7 |
| 20260502060044 | 44 | 123 | 0.0 | 1.7 | 0.00 | 0.11 | 0.01 | 94 | 1011.2 |
| 20260502060010 | 44 | 123 | 0.0 | 1.7 | 0.00 | 0.11 | 0.01 | 94 | 1011.6 |
| 20260502054552 | 44 | 159 | 0.0 | 1.7 | 0.00 | 0.11 | 0.01 | 93 | 1011.3 |
| 20260502054520 | 44 | 159 | 0.0 | 1.7 | 0.00 | 0.11 | 0.01 | 93 | 1011.6 |
| 20260502053046 | 44 | 0 | 0.0 | 1.7 | 0.00 | 0.11 | 0.01 | 93 | 1011.4 |
| 20260502053011 | 44 | 163 | 0.0 | 0.9 | 0.00 | 0.11 | 0.01 | 93 | 1011.9 |
| 20260502051545 | 44 | 0 | 0.0 | 1.7 | 0.00 | 0.11 | 0.01 | 92 | 1011.5 |
| 20260502051520 | 44 | 163 | 0.0 | 1.7 | 0.01 | 0.11 | 0.01 | 92 | 1011.9 |